Koksijde, Belgium

1:25 AM CEST on April 25, 2017 (GMT +0200)
Koksijde Air Base

Weather History for EBFN - February, 2013

Change the Weather History Date:

Thursday, February 14, 2013

  Actual Average Record
Temperature  
Mean Temperature 33 °F -  
Max Temperature 36 °F 46 °F 53 °F (2014)
Min Temperature 30 °F 35 °F 23 °F (1999)
Degree Days  
Heating Degree Days 32    
Moisture  
Dew Point 30 °F    
Average Humidity 88    
Maximum Humidity 100    
Minimum Humidity 62    
Precipitation  
Precipitation 0.20 in - - ()
Sea Level Pressure  
Sea Level Pressure 29.95 in    
Wind  
Wind Speed 13 mph ()    
Max Wind Speed 22 mph    
Max Gust Speed -    
Visibility 2.9 miles    
Events Rain    
Averages and records for this station are not official NWS values.
T = Trace of Precipitation, MM = Missing Value Source: Averaged Metar Reports

Daily Weather History Graph

Daily Weather History Graph

Search for Another Location

Airport or City:

Trip Planner

Search our weather history database for the weather conditions in past years. The results will help you decide how hot, cold, wet, or windy it might be!

Date:

Astronomy

Feb. 14, 2013 Rise Set
Actual Time 8:04 AM CET 6:03 PM CET
Civil Twilight 7:29 AM CET 6:38 PM CET
Nautical Twilight 6:51 AM CET 7:16 PM CET
Astronomical Twilight 6:12 AM CET 7:55 PM CET
Moon 9:21 AM CET (2/14) 11:31 PM CET (2/14)
Length of Visible Light 11h 08m
Length of Day
9h 59m
Waxing Crescent, 19% of the Moon is Illuminated
Feb 14
Waxing Crescent
Feb 17
First Quarter
Feb 25
Full
Mar 4
Last Quarter
Mar 11
New

Hourly Weather History & Observations

Time (CET) Temp. Windchill Dew Point Humidity Pressure Visibility Wind Dir Wind Speed Gust Speed Precip Events Conditions
12:25 AM 30.2 °F 18.5 °F 23.0 °F 75% 30.15 in 4.3 mi South 17.3 mph - N/A   Overcast
12:55 AM 30.2 °F 18.9 °F 23.0 °F 75% 30.15 in 4.3 mi South 16.1 mph - N/A   Mostly Cloudy
1:00 AM 31 °F - 23 °F 62% 30.17 in 4 mi South 15.7 mph - -   Partly Cloudy
1:25 AM 30.2 °F 18.5 °F 23.0 °F 75% 30.15 in 4.3 mi South 17.3 mph - N/A   Overcast
1:55 AM 30.2 °F 18.1 °F 23.0 °F 75% 30.12 in 4.3 mi South 18.4 mph - N/A   Mostly Cloudy
2:25 AM 30.2 °F 18.9 °F 23.0 °F 75% 30.12 in 4.3 mi South 16.1 mph - N/A   Overcast
2:55 AM 30.2 °F 18.5 °F 23.0 °F 75% 30.09 in 3.7 mi South 17.3 mph - N/A   Mostly Cloudy
3:25 AM 30.2 °F 18.9 °F 23.0 °F 75% 30.09 in 4.3 mi South 16.1 mph - N/A   Mostly Cloudy
3:55 AM 32.0 °F 21.2 °F 23.0 °F 69% 30.06 in 4.3 mi South 16.1 mph - N/A   Mostly Cloudy
4:00 AM 31 °F - 24 °F 64% 30.09 in 4 mi South 15.7 mph - -   Mostly Cloudy
4:25 AM 30.2 °F 19.3 °F 23.0 °F 75% 30.06 in 4.3 mi South 15.0 mph - N/A Rain Light Freezing Rain
4:55 AM 30.2 °F 19.3 °F 24.8 °F 80% 30.04 in 3.1 mi South 15.0 mph - N/A Rain Light Freezing Rain
5:25 AM 30.2 °F 18.1 °F 24.8 °F 80% 30.04 in 4.3 mi South 18.4 mph - N/A   Mostly Cloudy
5:55 AM 30.2 °F 18.5 °F 24.8 °F 80% 30.04 in 4.3 mi South 17.3 mph - N/A   Mostly Cloudy
6:31 AM 30.2 °F 18.1 °F 24.8 °F 80% 30.01 in 3.7 mi South 18.4 mph - N/A   Light Freezing Rain
6:55 AM 30.2 °F 17.4 °F 26.6 °F 86% 29.98 in 3.1 mi SSE 20.7 mph - N/A   Light Freezing Rain
7:00 AM 31 °F - 25 °F 72% 30.00 in 3 mi SSE 22.4 mph - - Rain Light Freezing Drizzle
7:02 AM 30.2 °F 17.8 °F 26.6 °F 86% 29.98 in - South 19.6 mph - N/A   Light Freezing Rain
7:25 AM 30.2 °F 18.1 °F 26.6 °F 86% 29.98 in 2.8 mi South 18.4 mph - N/A   Light Freezing Rain
7:38 AM 30.2 °F 17.4 °F 26.6 °F 86% 29.98 in 3.1 mi South 20.7 mph - N/A   Mostly Cloudy
7:55 AM 30.2 °F 18.1 °F 26.6 °F 86% 29.95 in 3.7 mi SSE 18.4 mph - N/A   Mostly Cloudy
8:01 AM 30.2 °F 17.8 °F 26.6 °F 86% 29.95 in 3.7 mi SSE 19.6 mph - N/A   Mostly Cloudy
8:12 AM 32.0 °F 20.1 °F 26.6 °F 80% 29.95 in 3.7 mi SSE 19.6 mph - N/A Rain Rain
8:25 AM 32.0 °F 19.5 °F 26.6 °F 80% 29.95 in 3.1 mi South 21.9 mph - N/A Rain Rain
8:55 AM 30.2 °F 17.8 °F 28.4 °F 93% 29.95 in 3.1 mi South 19.6 mph - N/A Rain Light Freezing Rain
9:25 AM 32.0 °F 21.2 °F 28.4 °F 87% 29.95 in 3.1 mi South 16.1 mph - N/A Rain Rain
9:55 AM 32.0 °F 21.2 °F 28.4 °F 87% 29.92 in - South 16.1 mph - N/A Rain Rain
10:00 AM 32 °F - 29 °F 85% 29.93 in 3 mi South 17.9 mph - -   Light Freezing Rain
10:01 AM 32.0 °F 20.5 °F 30.2 °F 93% 29.92 in - South 18.4 mph - N/A Rain Rain
10:25 AM 32.0 °F 20.8 °F 30.2 °F 93% 29.89 in - South 17.3 mph - N/A Rain Rain
10:55 AM 32.0 °F 23.0 °F 30.2 °F 93% 29.89 in 1.5 mi South 11.5 mph - N/A Rain Rain
11:25 AM 32.0 °F 23.0 °F 30.2 °F 93% 29.89 in 2.2 mi South 11.5 mph - N/A Rain Rain
11:53 AM 32.0 °F 23.6 °F 32.0 °F 100% 29.89 in 1.2 mi South 10.4 mph - N/A Rain Rain
12:25 PM 32.0 °F 24.2 °F 32.0 °F 100% 29.89 in 1.4 mi South 9.2 mph - N/A Rain Rain
12:55 PM 33.8 °F 26.4 °F 32.0 °F 93% 29.86 in 1.9 mi South 9.2 mph - N/A Rain Light Rain
1:00 PM 33 °F - 32 °F 93% 29.88 in 2 mi South 8.9 mph - - Rain Light Rain
1:25 PM 33.8 °F 26.4 °F 32.0 °F 93% 29.86 in 2.5 mi South 9.2 mph - N/A   Mostly Cloudy
1:55 PM 33.8 °F 26.4 °F 32.0 °F 93% 29.86 in 2.5 mi South 9.2 mph - N/A   Mostly Cloudy
2:25 PM 33.8 °F 27.7 °F 33.8 °F 100% 29.86 in - SSW 6.9 mph - N/A   Mostly Cloudy
2:55 PM 35.6 °F 27.5 °F 33.8 °F 93% 29.86 in - South 11.5 mph - N/A   Mostly Cloudy
3:25 PM 35.6 °F 28.0 °F 33.8 °F 93% 29.86 in 2.8 mi South 10.4 mph - N/A   Mostly Cloudy
3:37 PM 35.6 °F 29.2 °F 35.6 °F 100% 29.86 in - SSW 8.1 mph - N/A   Mostly Cloudy
3:55 PM 35.6 °F 28.0 °F 33.8 °F 93% 29.86 in - SSW 10.4 mph - N/A   Scattered Clouds
4:22 PM 37.4 °F 30.3 °F 35.6 °F 93% 29.86 in 3.1 mi SSW 10.4 mph - N/A   Scattered Clouds
4:25 PM 37.4 °F 30.3 °F 35.6 °F 93% 29.86 in 3.1 mi SSW 10.4 mph - N/A   Scattered Clouds
4:39 PM 35.6 °F 28.6 °F 33.8 °F 93% 29.86 in - SSW 9.2 mph - N/A   Scattered Clouds
4:55 PM 35.6 °F 29.2 °F 35.6 °F 100% 29.86 in - SSW 8.1 mph - N/A   Mostly Cloudy
5:25 PM 35.6 °F 30.7 °F 33.8 °F 93% 29.86 in 2.5 mi SSW 5.8 mph - N/A   Scattered Clouds
5:55 PM 35.6 °F 31.7 °F 33.8 °F 93% 29.86 in - South 4.6 mph - N/A   Mostly Cloudy
6:25 PM 35.6 °F 32.8 °F 33.8 °F 93% 29.89 in - Variable 3.5 mph - N/A   Mostly Cloudy
6:55 PM 33.8 °F 30.8 °F 33.8 °F 100% 29.89 in 1.9 mi Variable 3.5 mph - N/A   Mostly Cloudy
7:00 PM 34 °F - 34 °F 98% 29.90 in 2 mi 4.5 mph - -   Mist
7:25 PM 33.8 °F - 33.8 °F 100% 29.89 in 1.7 mi Variable 2.3 mph - N/A   Mostly Cloudy
8:55 PM 35.6 °F 31.7 °F 33.8 °F 93% 29.89 in 1.1 mi SW 4.6 mph - N/A   Mostly Cloudy
9:10 PM 35.6 °F 30.7 °F 33.8 °F 93% 29.92 in 0.9 mi WSW 5.8 mph - N/A   Mostly Cloudy
9:25 PM 35.6 °F 30.7 °F 33.8 °F 93% 29.92 in 1.0 mi WSW 5.8 mph - N/A   Scattered Clouds
9:55 PM 35.6 °F 31.7 °F 33.8 °F 93% 29.92 in 1.2 mi WSW 4.6 mph - N/A   Mostly Cloudy
10:00 PM 35 °F - 35 °F 98% 29.93 in 1 mi WSW 4.5 mph - -   Mist
10:25 PM 35.6 °F 30.7 °F 35.6 °F 100% 29.92 in 1.9 mi WSW 5.8 mph - N/A   Mostly Cloudy
10:55 PM 35.6 °F 29.9 °F 35.6 °F 100% 29.92 in - WSW 6.9 mph - N/A   Mostly Cloudy
11:13 PM 35.6 °F 29.9 °F 35.6 °F 100% 29.92 in 2.5 mi WSW 6.9 mph - N/A   Mostly Cloudy
11:15 PM 35.6 °F 29.9 °F 35.6 °F 100% 29.92 in 2.5 mi WSW 6.9 mph - N/A   Mostly Cloudy
11:25 PM 35.6 °F 30.7 °F 35.6 °F 100% 29.92 in 3.1 mi WSW 5.8 mph - N/A   Mostly Cloudy
11:55 PM 35.6 °F 30.7 °F 35.6 °F 100% 29.92 in 4.3 mi WSW 5.8 mph - N/A   Mostly Cloudy